AEE112 LGAV-LGKR

Flight info

Callsign AEE112
Flight time 0h 42m
Altitude 32000
Route KOR UL53 PARNA
Aircraft A320/M-SDE3FGHIRWY/LB1

Departure

Time 2026-05-05 18:59
Airport Athens Eleftherios Venizelos International Airport (LGAV)

Arrival

Time 2026-05-05 19:41
Airport Corfu Ioannis Kapodistrias International Airport (LGKR)
Time Latitude Longitude Altitude Speed Heading
2026-05-05 18:45 37.94030 23.95297 302 ft 0 kts 39°
2026-05-05 18:48 37.94020 23.95286 302 ft 2 kts 39°
2026-05-05 18:48 37.94007 23.95273 305 ft 2 kts 39°
2026-05-05 18:48 37.93994 23.95261 302 ft 2 kts 39°
2026-05-05 18:48 37.93982 23.95248 302 ft 2 kts 38°
2026-05-05 18:49 37.93969 23.95234 303 ft 2 kts 106°
2026-05-05 18:49 37.93970 23.95229 302 ft 0 kts 146°
2026-05-05 18:50 37.93969 23.95229 302 ft 1 kts 146°
2026-05-05 18:50 37.93959 23.95238 305 ft 3 kts 146°
2026-05-05 18:51 37.93936 23.95269 303 ft 6 kts 128°
2026-05-05 18:51 37.93903 23.95322 303 ft 9 kts 128°
2026-05-05 18:51 37.93843 23.95323 301 ft 11 kts 214°
2026-05-05 18:51 37.93773 23.95252 305 ft 18 kts 217°
2026-05-05 18:52 37.93666 23.95153 302 ft 19 kts 216°
2026-05-05 18:52 37.93561 23.95054 302 ft 19 kts 218°
2026-05-05 18:52 37.93460 23.94955 302 ft 15 kts 217°
2026-05-05 18:52 37.93390 23.94888 303 ft 12 kts 215°
2026-05-05 18:53 37.93324 23.94829 304 ft 11 kts 217°
2026-05-05 18:53 37.93260 23.94768 303 ft 12 kts 217°
2026-05-05 18:53 37.93194 23.94704 304 ft 11 kts 217°
2026-05-05 18:53 37.93138 23.94652 302 ft 10 kts 216°
2026-05-05 18:54 37.93080 23.94597 304 ft 11 kts 217°
2026-05-05 18:54 37.93000 23.94521 303 ft 18 kts 217°
2026-05-05 18:54 37.92893 23.94418 304 ft 20 kts 217°
2026-05-05 18:54 37.92780 23.94311 304 ft 21 kts 216°
2026-05-05 18:55 37.92664 23.94203 304 ft 21 kts 216°
2026-05-05 18:55 37.92548 23.94091 304 ft 21 kts 217°
2026-05-05 18:55 37.92446 23.94136 304 ft 16 kts 126°
2026-05-05 18:55 37.92408 23.94259 307 ft 14 kts 94°
2026-05-05 18:56 37.92416 23.94365 310 ft 11 kts 73°
2026-05-05 18:56 37.92449 23.94414 310 ft 0 kts 39°
2026-05-05 18:56 37.92449 23.94415 310 ft 0 kts 39°
2026-05-05 18:56 37.92450 23.94415 310 ft 0 kts 39°
2026-05-05 18:57 37.92454 23.94420 310 ft 1 kts 39°
2026-05-05 18:57 37.92460 23.94426 310 ft 1 kts 38°
2026-05-05 18:57 37.92463 23.94429 310 ft 1 kts 38°
2026-05-05 18:57 37.92476 23.94441 310 ft 12 kts 38°
2026-05-05 18:58 37.92702 23.94660 305 ft 69 kts 36°
2026-05-05 18:58 37.93234 23.95163 294 ft 120 kts 37°
2026-05-05 18:58 37.94025 23.95912 316 ft 158 kts 36°
2026-05-05 18:58 37.94886 23.96741 858 ft 159 kts 36°
2026-05-05 18:59 37.95774 23.97620 1425 ft 164 kts 38°
2026-05-05 18:59 37.96678 23.98552 2033 ft 169 kts 38°
2026-05-05 18:59 37.97623 23.99471 2653 ft 176 kts 36°
2026-05-05 18:59 37.98628 24.00429 3186 ft 185 kts 35°
2026-05-05 19:00 37.99679 24.01431 3691 ft 194 kts 36°
2026-05-05 19:00 38.00785 24.02494 4230 ft 204 kts 36°
2026-05-05 19:00 38.01938 24.03614 4779 ft 214 kts 35°
2026-05-05 19:00 38.03172 24.04820 5184 ft 236 kts 36°
2026-05-05 19:01 38.04539 24.06169 5696 ft 263 kts 37°
2026-05-05 19:01 38.06144 24.07387 6336 ft 276 kts 16°
2026-05-05 19:01 38.08032 24.07507 7463 ft 269 kts 348°
2026-05-05 19:01 38.09718 24.06547 8678 ft 268 kts 323°
2026-05-05 19:02 38.10907 24.04695 9620 ft 280 kts 297°
2026-05-05 19:02 38.11305 24.02269 10494 ft 290 kts 270°
2026-05-05 19:02 38.10988 23.99657 11083 ft 308 kts 262°
2026-05-05 19:02 38.10551 23.96917 11571 ft 326 kts 262°
2026-05-05 19:03 38.10067 23.94033 12037 ft 345 kts 261°
2026-05-05 19:03 38.09545 23.90984 12490 ft 362 kts 261°
2026-05-05 19:03 38.08998 23.87790 12914 ft 379 kts 261°
2026-05-05 19:03 38.08430 23.84456 13287 ft 393 kts 261°
2026-05-05 19:04 38.07848 23.81009 13838 ft 403 kts 261°
2026-05-05 19:04 38.07263 23.77506 14510 ft 406 kts 261°
2026-05-05 19:04 38.06686 23.74039 15186 ft 407 kts 261°
2026-05-05 19:04 38.06103 23.70518 15827 ft 409 kts 261°
2026-05-05 19:05 38.05515 23.66981 16475 ft 411 kts 262°
2026-05-05 19:05 38.04927 23.63418 17138 ft 414 kts 262°
2026-05-05 19:05 38.04333 23.59832 17799 ft 415 kts 262°
2026-05-05 19:05 38.03738 23.56247 18407 ft 417 kts 262°
2026-05-05 19:06 38.03128 23.52631 18962 ft 420 kts 262°
2026-05-05 19:06 38.02513 23.49002 19517 ft 421 kts 262°
2026-05-05 19:06 38.01895 23.45363 20032 ft 422 kts 262°
2026-05-05 19:06 38.01276 23.41720 20520 ft 427 kts 262°
2026-05-05 19:07 38.00649 23.38029 21029 ft 429 kts 262°
2026-05-05 19:07 38.00025 23.34327 21519 ft 430 kts 262°
2026-05-05 19:07 37.99396 23.30614 21965 ft 432 kts 262°
2026-05-05 19:07 37.98763 23.26884 22390 ft 433 kts 262°
2026-05-05 19:08 37.98129 23.23146 22750 ft 435 kts 262°
2026-05-05 19:08 37.97487 23.19386 23134 ft 436 kts 262°
2026-05-05 19:08 37.96840 23.15625 23530 ft 436 kts 262°
2026-05-05 19:08 37.96191 23.11853 23830 ft 438 kts 262°
2026-05-05 19:09 37.95543 23.08069 24090 ft 441 kts 262°
2026-05-05 19:09 37.94896 23.04311 24338 ft 443 kts 263°
2026-05-05 19:09 37.94466 23.00467 24602 ft 439 kts 270°
2026-05-05 19:09 37.94430 22.96614 24845 ft 436 kts 277°
2026-05-05 19:10 37.94815 22.92829 25078 ft 433 kts 286°
2026-05-05 19:10 37.95745 22.89222 25317 ft 431 kts 296°
2026-05-05 19:10 37.97217 22.85937 25546 ft 428 kts 306°
2026-05-05 19:10 37.98934 22.82862 25727 ft 429 kts 307°
2026-05-05 19:11 38.00662 22.79768 25895 ft 429 kts 306°
2026-05-05 19:11 38.02382 22.76669 26052 ft 430 kts 306°
2026-05-05 19:11 38.04093 22.73557 26217 ft 430 kts 306°
2026-05-05 19:11 38.05794 22.70450 26419 ft 428 kts 306°
2026-05-05 19:12 38.07491 22.67348 26618 ft 428 kts 306°
2026-05-05 19:12 38.09183 22.64247 26845 ft 426 kts 306°
2026-05-05 19:12 38.10870 22.61160 27083 ft 425 kts 306°
2026-05-05 19:12 38.12554 22.58078 27320 ft 424 kts 306°
2026-05-05 19:13 38.14236 22.54998 27583 ft 423 kts 306°
2026-05-05 19:13 38.15911 22.51933 27861 ft 421 kts 306°
2026-05-05 19:13 38.17576 22.48879 28143 ft 420 kts 306°
2026-05-05 19:13 38.19237 22.45829 28465 ft 419 kts 306°
2026-05-05 19:14 38.20893 22.42791 28857 ft 417 kts 306°
2026-05-05 19:14 38.22540 22.39765 29307 ft 414 kts 306°
2026-05-05 19:14 38.24168 22.36766 29733 ft 411 kts 306°
2026-05-05 19:14 38.25766 22.33819 30130 ft 409 kts 306°
2026-05-05 19:15 38.27375 22.30844 30477 ft 407 kts 306°
2026-05-05 19:15 38.28981 22.27877 30777 ft 406 kts 306°
2026-05-05 19:15 38.30583 22.24917 31076 ft 406 kts 306°
2026-05-05 19:15 38.32183 22.21963 31402 ft 404 kts 306°
2026-05-05 19:16 38.33777 22.19019 31732 ft 403 kts 307°
2026-05-05 19:16 38.35360 22.16091 32034 ft 402 kts 307°
2026-05-05 19:16 38.38531 22.10207 32124 ft 403 kts 306°
2026-05-05 19:17 38.41697 22.04317 32135 ft 402 kts 306°
2026-05-05 19:17 38.44867 21.98415 32135 ft 404 kts 306°
2026-05-05 19:18 38.48037 21.92501 32135 ft 404 kts 306°
2026-05-05 19:18 38.51200 21.86580 32132 ft 404 kts 306°
2026-05-05 19:19 38.54379 21.80635 32129 ft 405 kts 306°
2026-05-05 19:19 38.57538 21.74708 32111 ft 409 kts 306°
2026-05-05 19:20 38.60771 21.68622 32144 ft 419 kts 305°
2026-05-05 19:20 38.64081 21.62390 32138 ft 427 kts 305°
2026-05-05 19:21 38.67407 21.56111 32137 ft 426 kts 305°
2026-05-05 19:21 38.70172 21.50887 32140 ft 425 kts 305°
2026-05-05 19:22 38.73487 21.44610 32130 ft 422 kts 305°
2026-05-05 19:22 38.75101 21.41543 32135 ft 409 kts 305°
2026-05-05 19:22 38.76689 21.38525 32132 ft 407 kts 305°
2026-05-05 19:23 38.78253 21.35548 31269 ft 403 kts 305°
2026-05-05 19:23 38.79841 21.32535 29986 ft 410 kts 304°
2026-05-05 19:23 38.81419 21.29535 29199 ft 402 kts 304°
2026-05-05 19:23 38.82969 21.26583 28313 ft 397 kts 304°
2026-05-05 19:24 38.84503 21.23653 27407 ft 395 kts 304°
2026-05-05 19:24 38.86026 21.20739 26488 ft 393 kts 304°
2026-05-05 19:24 38.87551 21.17818 25516 ft 396 kts 304°
2026-05-05 19:24 38.89098 21.14862 24792 ft 402 kts 305°
2026-05-05 19:25 38.90670 21.11865 24158 ft 404 kts 304°
2026-05-05 19:25 38.92234 21.08876 23451 ft 401 kts 304°
2026-05-05 19:25 38.93757 21.05954 22752 ft 396 kts 304°
2026-05-05 19:25 38.95283 21.03013 22086 ft 395 kts 304°
2026-05-05 19:26 38.96806 21.00083 21415 ft 391 kts 304°
2026-05-05 19:26 38.98312 20.97191 20730 ft 389 kts 304°
2026-05-05 19:26 38.99813 20.94315 19991 ft 385 kts 304°
2026-05-05 19:26 39.01288 20.91467 19276 ft 382 kts 304°
2026-05-05 19:27 39.02748 20.88631 18553 ft 377 kts 304°
2026-05-05 19:27 39.04141 20.85770 17670 ft 376 kts 302°
2026-05-05 19:27 39.05450 20.82876 16998 ft 375 kts 300°
2026-05-05 19:27 39.06717 20.79943 16319 ft 373 kts 300°
2026-05-05 19:28 39.07973 20.76993 15546 ft 383 kts 300°
2026-05-05 19:28 39.09257 20.73982 14731 ft 382 kts 300°
2026-05-05 19:28 39.10534 20.71017 14033 ft 376 kts 300°
2026-05-05 19:28 39.11789 20.68129 13273 ft 372 kts 300°
2026-05-05 19:29 39.13046 20.65247 12567 ft 366 kts 300°
2026-05-05 19:29 39.14287 20.62411 11876 ft 362 kts 300°
2026-05-05 19:29 39.15521 20.59598 11169 ft 359 kts 300°
2026-05-05 19:29 39.16727 20.56841 10830 ft 342 kts 300°
2026-05-05 19:30 39.17849 20.54276 10707 ft 316 kts 300°
2026-05-05 19:30 39.18889 20.51890 10535 ft 297 kts 300°
2026-05-05 19:30 39.19877 20.49608 10076 ft 288 kts 300°
2026-05-05 19:30 39.20850 20.47372 9813 ft 284 kts 300°
2026-05-05 19:31 39.21822 20.45144 9674 ft 285 kts 300°
2026-05-05 19:31 39.22790 20.42926 9548 ft 284 kts 300°
2026-05-05 19:31 39.23759 20.40702 9416 ft 283 kts 300°
2026-05-05 19:31 39.24722 20.38490 9286 ft 282 kts 300°
2026-05-05 19:32 39.25683 20.36279 9159 ft 282 kts 300°
2026-05-05 19:32 39.26633 20.34093 8882 ft 278 kts 299°
2026-05-05 19:32 39.27571 20.31926 8546 ft 276 kts 299°
2026-05-05 19:32 39.28501 20.29779 8222 ft 273 kts 299°
2026-05-05 19:33 39.29411 20.27668 7902 ft 272 kts 298°
2026-05-05 19:33 39.30330 20.25541 7569 ft 270 kts 298°
2026-05-05 19:33 39.31246 20.23431 7249 ft 268 kts 298°
2026-05-05 19:33 39.32155 20.21329 6938 ft 269 kts 298°
2026-05-05 19:34 39.33065 20.19223 6597 ft 267 kts 298°
2026-05-05 19:34 39.33972 20.17130 6265 ft 266 kts 298°
2026-05-05 19:34 39.34870 20.15048 5943 ft 264 kts 298°
2026-05-05 19:35 39.36658 20.10901 5300 ft 263 kts 298°
2026-05-05 19:35 39.37539 20.08845 4982 ft 261 kts 298°
2026-05-05 19:35 39.38415 20.06798 4583 ft 259 kts 298°
2026-05-05 19:35 39.39280 20.04779 4243 ft 254 kts 298°
2026-05-05 19:36 39.40123 20.02816 3940 ft 247 kts 298°
2026-05-05 19:36 39.40952 20.00896 3635 ft 242 kts 298°
2026-05-05 19:36 39.41757 19.99034 3367 ft 238 kts 298°
2026-05-05 19:36 39.42577 19.97218 3059 ft 226 kts 307°
2026-05-05 19:37 39.43658 19.95890 2807 ft 206 kts 327°
2026-05-05 19:37 39.44906 19.95164 2609 ft 188 kts 344°
2026-05-05 19:37 39.46133 19.94839 2378 ft 170 kts 347°
2026-05-05 19:37 39.47222 19.94565 2166 ft 149 kts 348°
2026-05-05 19:38 39.48213 19.94309 2003 ft 146 kts 348°
2026-05-05 19:38 39.49204 19.94052 1847 ft 145 kts 348°
2026-05-05 19:38 39.50186 19.93794 1771 ft 144 kts 348°
2026-05-05 19:38 39.51156 19.93540 1617 ft 144 kts 348°
2026-05-05 19:39 39.52135 19.93288 1407 ft 142 kts 348°
2026-05-05 19:39 39.53106 19.93024 1208 ft 143 kts 347°
2026-05-05 19:39 39.54073 19.92732 1019 ft 143 kts 343°
2026-05-05 19:39 39.55030 19.92390 827 ft 143 kts 344°
2026-05-05 19:40 39.56009 19.92180 663 ft 143 kts 352°
2026-05-05 19:40 39.56995 19.91990 484 ft 143 kts 348°
2026-05-05 19:40 39.57971 19.91752 330 ft 142 kts 348°
2026-05-05 19:40 39.58941 19.91508 119 ft 141 kts 348°
2026-05-05 19:41 39.59885 19.91288 25 ft 119 kts 349°
2026-05-05 19:41 39.60407 19.91159 22 ft 41 kts 349°
2026-05-05 19:41 39.60570 19.91194 23 ft 19 kts 27°
2026-05-05 19:41 39.60586 19.91303 20 ft 12 kts 96°
2026-05-05 19:42 39.60587 19.91329 20 ft 4 kts 84°
2026-05-05 19:42 39.60590 19.91362 20 ft 0 kts 83°
2026-05-05 19:42 39.60590 19.91363 20 ft 0 kts 83°